CZ-6A DEB, 61471

Orbit data source: Space-Track

CZ-6A DEB, 61471 is space debris in LEO originally from a launch on Tue, 06 Aug 2024 UTC launched from the Taiyaun Space Center, China (TSC). Debris objects in space refer to the collection of defunct objects orbiting the Earth. Examples of debris include non-operational satellites, rocket bodies, and fragments generated from explosions, collisions, or faulty payload assembly.

Loading next visibility...
Identifier
61471, 2024-140AAD
Orbit
LEO
Last TLE update
22 hours ago
Origin
Manufacturer
SAST
Mission
Spacecraft
Bus & Motor
Unknown
Mass
Unknown
Launch date (UTC)
2024-08-06 (11 months ago)
Launch vehicle
Unknown
Launch site
Taiyaun Space Center, China (TSC)
Object type
Payload
Rocket body
Debris
Shape & HBR
Unknown
Radar Cross Section
Small (<0.1 m²)

Expand to show TLE details & history

TLE from 22 hours ago
0 CZ-6A DEB
1 61471U 24140AAD 25189.78605565  .00002147  00000-0  11642-2 0  9997
2 61471  88.9119 310.6273 0110160 217.3946 141.9537 14.09067022 41590
Epoch: 2025-07-08T18:51Z
TLE epoch observation values (Epoch: 2025-07-08T18:51:55.208Z)
Latitude
Longitude
100.67122°
Altitude
928.761 km
Speed
7.355 km/s
True Right ascension
20h 42m 30s
True Declination
0° 00' 00"
Sunlit
Object was in full shadow at epoch
Visualization orbit readout
Latitude
-50.55776°
Longitude
-78.12167°
Altitude
805.436 km
Speed
7.489 km/s
Apparent Right ascension
12h 54m 19s
Apparent Declination
-62° 41' 51"
Sunlit
Object is in daylight
Visualization observer readout
Local Sidereal Time
04:35:30
Azimuth
143.733° SSE
Elevation
-50.397°
Doppler factor
1
Orbital elements
Apogee altitude
939.263 km
Perigee altitude
779.803 km
Semi-major axis
7,237.67 km
Eccentricity
0.01102
Inclination
88.9119°
RAAN
310.6273°
Arg. of periapsis
217.3946°
True anomaly
Unknown
Mean anomaly
141.9537°
Eccentric anomaly
Unknown
Mean motion
3.52489 °/min
Orbital period
102.13 mins
BSTAR
0.0011642
Loading maneuver chart data...
Loading SW <> Apogee altitude chart data...
Loading historical data...
Loading historical data...
Loading historical data...
Loading historical data...
Loading historical data...
Loading historical data...
Loading historical data...

CZ-6A DEB Visibility forecast

Observer location: undefined°, undefined°

Span
Click to sort rows by Start time (UTC) header in descending order
Start Az.
Max El. time (UTC)
Max El. Az.
Max El.
End time (UTC)
End Az.
8 mins2025-07-09 19:19:32.711Z29.808° NE2025-07-09 19:23:32.711Z79.426° E22.412°2025-07-09 19:27:32.711Z131.342° SE
8 mins2025-07-09 21:02:32.711Z335.942° NNW2025-07-09 21:05:32.711Z288.763° WNW32.116°2025-07-09 21:10:32.711Z212.701° SW
10 mins2025-07-10 08:28:32.711Z178.747° S2025-07-10 08:33:32.711Z345.547° N44.605°2025-07-10 08:38:32.711Z358.594° N
|